Time,TemperatureF,DewpointF,PressureIn,WindDirection,WindDirectionDegrees,WindSpeedMPH,WindSpeedGustMPH,Humidity,HourlyPrecipIn,Conditions,Clouds,dailyrainin,SoftwareType,DateUTC
2013-01-30 00:09:00,57.0,57.0,30.09,West,263,0.0,-999.0,99,-99.99,,,0.01,weatherlink.com 1.10,2013-01-30 05:09:00,
2013-01-30 00:24:00,56.9,57.0,30.09,West,263,0.0,-999.0,99,-99.99,,,0.01,weatherlink.com 1.10,2013-01-30 05:24:00,
2013-01-30 00:39:00,57.3,57.0,30.09,West,268,0.0,-999.0,99,-99.99,,,0.01,weatherlink.com 1.10,2013-01-30 05:39:00,
2013-01-30 00:54:00,57.2,57.0,30.09,West,268,0.0,-999.0,99,-99.99,,,0.01,weatherlink.com 1.10,2013-01-30 05:54:00,
2013-01-30 01:09:00,56.7,57.0,30.08,West,265,0.0,-999.0,99,-99.99,,,0.01,weatherlink.com 1.10,2013-01-30 06:09:00,
2013-01-30 01:24:00,56.6,56.0,30.07,West,265,0.0,-999.0,99,-99.99,,,0.01,weatherlink.com 1.10,2013-01-30 06:24:00,
2013-01-30 01:39:00,56.6,56.0,30.06,West,265,0.0,-999.0,99,-99.99,,,0.00,weatherlink.com 1.10,2013-01-30 06:39:00,
2013-01-30 01:54:00,56.3,56.0,30.06,West,265,0.0,-999.0,99,-99.99,,,0.00,weatherlink.com 1.10,2013-01-30 06:54:00,
2013-01-30 02:09:00,57.0,57.0,30.05,West,265,0.0,-999.0,99,-99.99,,,0.00,weatherlink.com 1.10,2013-01-30 07:09:00,
2013-01-30 02:24:00,56.6,56.0,30.05,West,265,0.0,-999.0,99,-99.99,,,0.00,weatherlink.com 1.10,2013-01-30 07:24:00,
2013-01-30 02:39:00,57.2,57.0,30.05,WSW,258,0.0,-999.0,99,-99.99,,,0.00,weatherlink.com 1.10,2013-01-30 07:39:00,
2013-01-30 02:54:00,56.6,56.0,30.05,SSW,195,0.0,-999.0,99,-99.99,,,0.01,weatherlink.com 1.10,2013-01-30 07:54:00,
2013-01-30 03:09:00,57.0,57.0,30.04,South,188,0.0,-999.0,99,-99.99,,,0.01,weatherlink.com 1.10,2013-01-30 08:09:00,
2013-01-30 03:24:00,57.8,58.0,30.03,SSW,202,1.0,-999.0,99,-99.99,,,0.01,weatherlink.com 1.10,2013-01-30 08:24:00,
2013-01-30 03:39:00,58.0,58.0,30.03,SSW,199,0.0,-999.0,99,-99.99,,,0.01,weatherlink.com 1.10,2013-01-30 08:39:00,
2013-01-30 03:54:00,59.6,59.0,30.03,SSW,202,1.0,-999.0,99,-99.99,,,0.01,weatherlink.com 1.10,2013-01-30 08:54:00,
2013-01-30 04:09:00,59.8,60.0,30.02,SSW,203,0.0,-999.0,99,-99.99,,,0.01,weatherlink.com 1.10,2013-01-30 09:09:00,
2013-01-30 04:24:00,59.2,59.0,30.02,SSW,208,0.0,-999.0,99,-99.99,,,0.01,weatherlink.com 1.10,2013-01-30 09:24:00,
2013-01-30 04:39:00,58.7,59.0,30.02,South,185,0.0,-999.0,99,-99.99,,,0.01,weatherlink.com 1.10,2013-01-30 09:39:00,
2013-01-30 04:54:00,57.0,57.0,30.02,SSW,193,0.0,-999.0,99,-99.99,,,0.01,weatherlink.com 1.10,2013-01-30 09:54:00,
2013-01-30 05:09:00,58.1,58.0,30.00,South,184,0.0,-999.0,100,-99.99,,,0.01,weatherlink.com 1.10,2013-01-30 10:09:00,
2013-01-30 05:24:00,59.0,59.0,30.01,South,178,0.0,-999.0,99,-99.99,,,0.01,weatherlink.com 1.10,2013-01-30 10:24:00,
2013-01-30 05:39:00,58.7,59.0,30.01,South,191,0.0,-999.0,99,-99.99,,,0.01,weatherlink.com 1.10,2013-01-30 10:39:00,
2013-01-30 05:54:00,59.2,59.0,30.00,SSW,202,6.0,-999.0,99,-99.99,,,0.01,weatherlink.com 1.10,2013-01-30 10:54:00,
2013-01-30 06:09:00,59.2,59.0,30.00,South,191,2.0,-999.0,99,-99.99,,,0.01,weatherlink.com 1.10,2013-01-30 11:09:00,
2013-01-30 06:24:00,58.9,59.0,30.01,SSW,199,0.0,-999.0,99,-99.99,,,0.01,weatherlink.com 1.10,2013-01-30 11:24:00,
2013-01-30 06:39:00,58.9,59.0,30.01,SSW,193,0.0,-999.0,99,-99.99,,,0.01,weatherlink.com 1.10,2013-01-30 11:39:00,
2013-01-30 06:54:00,58.7,58.0,30.01,SSW,199,2.0,-999.0,98,-99.99,,,0.01,weatherlink.com 1.10,2013-01-30 11:54:00,
2013-01-30 07:09:00,58.7,58.0,30.01,SSW,206,0.0,-999.0,98,-99.99,,,0.01,weatherlink.com 1.10,2013-01-30 12:09:00,
2013-01-30 07:24:00,58.9,58.0,30.02,South,182,0.0,-999.0,98,-99.99,,,0.01,weatherlink.com 1.10,2013-01-30 12:24:00,
2013-01-30 07:39:00,59.0,59.0,30.01,SSW,193,0.0,-999.0,98,-99.99,,,0.01,weatherlink.com 1.10,2013-01-30 12:39:00,
2013-01-30 07:54:00,59.5,59.0,30.02,SSW,192,0.0,-999.0,98,-99.99,,,0.01,weatherlink.com 1.10,2013-01-30 12:54:00,
2013-01-30 08:09:00,60.2,59.0,30.01,South,176,0.0,-999.0,97,-99.99,,,0.01,weatherlink.com 1.10,2013-01-30 13:09:00,
2013-01-30 08:24:00,61.0,60.0,30.00,South,182,6.0,-999.0,96,-99.99,,,0.01,weatherlink.com 1.10,2013-01-30 13:24:00,
2013-01-30 08:39:00,62.0,61.0,29.98,South,169,0.0,-999.0,95,-99.99,,,0.01,weatherlink.com 1.10,2013-01-30 13:39:00,
2013-01-30 08:54:00,61.8,60.0,29.98,South,171,6.0,-999.0,93,-99.99,,,0.01,weatherlink.com 1.10,2013-01-30 13:54:00,
2013-01-30 09:09:00,62.7,60.0,29.97,South,172,7.0,-999.0,92,-99.99,,,0.01,weatherlink.com 1.10,2013-01-30 14:09:00,
2013-01-30 09:24:00,62.4,60.0,29.98,South,175,0.0,-999.0,91,-99.99,,,0.01,weatherlink.com 1.10,2013-01-30 14:24:00,
2013-01-30 09:39:00,62.3,60.0,29.98,South,185,0.0,-999.0,91,-99.99,,,0.01,weatherlink.com 1.10,2013-01-30 14:39:00,
2013-01-30 09:54:00,62.6,60.0,29.98,South,189,6.0,-999.0,90,-99.99,,,0.01,weatherlink.com 1.10,2013-01-30 14:54:00,
2013-01-30 10:09:00,63.1,60.0,29.98,SSW,209,8.0,-999.0,90,-99.99,,,0.01,weatherlink.com 1.10,2013-01-30 15:09:00,
2013-01-30 10:24:00,63.5,60.0,29.97,SSW,192,8.0,-999.0,88,-99.99,,,0.01,weatherlink.com 1.10,2013-01-30 15:24:00,
2013-01-30 10:39:00,63.4,60.0,29.97,SW,220,2.0,-999.0,88,-99.99,,,0.01,weatherlink.com 1.10,2013-01-30 15:39:00,
2013-01-30 10:54:00,64.0,60.0,29.96,South,186,1.0,-999.0,88,-99.99,,,0.01,weatherlink.com 1.10,2013-01-30 15:54:00,
2013-01-30 11:09:00,64.0,60.0,29.95,SSW,199,8.0,-999.0,87,-99.99,,,0.01,weatherlink.com 1.10,2013-01-30 16:09:00,
2013-01-30 11:24:00,64.3,60.0,29.95,SSE,155,6.0,-999.0,86,-99.99,,,0.01,weatherlink.com 1.10,2013-01-30 16:24:00,
2013-01-30 11:39:00,64.7,61.0,29.94,SSW,203,11.0,-999.0,87,-99.99,,,0.01,weatherlink.com 1.10,2013-01-30 16:39:00,
2013-01-30 11:54:00,65.2,61.0,29.93,South,184,9.0,-999.0,85,-99.99,,,0.01,weatherlink.com 1.10,2013-01-30 16:54:00,
2013-01-30 12:09:00,65.6,61.0,29.92,South,172,7.0,-999.0,85,-99.99,,,0.01,weatherlink.com 1.10,2013-01-30 17:09:00,
2013-01-30 12:24:00,65.8,61.0,29.92,South,188,0.0,-999.0,84,-99.99,,,0.01,weatherlink.com 1.10,2013-01-30 17:24:00,
2013-01-30 12:39:00,65.3,61.0,29.90,SSW,193,9.0,-999.0,85,-99.99,,,0.01,weatherlink.com 1.10,2013-01-30 17:39:00,
2013-01-30 12:54:00,65.0,61.0,29.89,South,189,1.0,-999.0,86,-99.99,,,0.01,weatherlink.com 1.10,2013-01-30 17:54:00,
2013-01-30 13:09:00,65.2,61.0,29.89,South,191,0.0,-999.0,85,-99.99,,,0.01,weatherlink.com 1.10,2013-01-30 18:09:00,
2013-01-30 13:24:00,65.0,61.0,29.88,South,179,1.0,-999.0,86,-99.99,,,0.01,weatherlink.com 1.10,2013-01-30 18:24:00,
2013-01-30 13:39:00,63.5,60.0,29.87,SW,220,6.0,-999.0,88,-99.99,,,0.01,weatherlink.com 1.10,2013-01-30 18:39:00,
2013-01-30 13:54:00,63.9,61.0,29.86,South,171,6.0,-999.0,90,-99.99,,,0.01,weatherlink.com 1.10,2013-01-30 18:54:00,
2013-01-30 14:09:00,64.5,61.0,29.85,SSE,155,1.0,-999.0,88,-99.99,,,0.01,weatherlink.com 1.10,2013-01-30 19:09:00,
2013-01-30 14:24:00,64.3,61.0,29.85,SSW,199,8.0,-999.0,89,-99.99,,,0.01,weatherlink.com 1.10,2013-01-30 19:24:00,
2013-01-30 14:39:00,65.0,61.0,29.85,South,174,10.0,-999.0,86,-99.99,,,0.01,weatherlink.com 1.10,2013-01-30 19:39:00,
2013-01-30 14:54:00,64.8,61.0,29.84,SW,230,6.0,-999.0,87,-99.99,,,0.01,weatherlink.com 1.10,2013-01-30 19:54:00,
2013-01-30 15:09:00,64.3,60.0,29.84,SSE,154,4.0,-999.0,87,-99.99,,,0.01,weatherlink.com 1.10,2013-01-30 20:09:00,
2013-01-30 15:24:00,64.5,60.0,29.83,South,181,6.0,-999.0,86,-99.99,,,0.01,weatherlink.com 1.10,2013-01-30 20:24:00,
2013-01-30 15:39:00,63.2,60.0,29.83,South,176,4.0,-999.0,89,-99.99,,,0.01,weatherlink.com 1.10,2013-01-30 20:39:00,
2013-01-30 15:54:00,62.9,60.0,29.82,South,176,2.0,-999.0,90,-99.99,,,0.01,weatherlink.com 1.10,2013-01-30 20:54:00,
2013-01-30 16:09:00,62.7,60.0,29.81,SW,215,9.0,-999.0,90,-99.99,,,0.01,weatherlink.com 1.10,2013-01-30 21:09:00,
2013-01-30 16:24:00,62.6,60.0,29.81,SSE,162,1.0,-999.0,90,-99.99,,,0.01,weatherlink.com 1.10,2013-01-30 21:24:00,
2013-01-30 16:39:00,62.7,60.0,29.80,South,186,4.0,-999.0,89,-99.99,,,0.01,weatherlink.com 1.10,2013-01-30 21:39:00,
2013-01-30 16:54:00,63.2,60.0,29.79,South,186,14.0,-999.0,89,-99.99,,,0.01,weatherlink.com 1.10,2013-01-30 21:54:00,
2013-01-30 17:09:00,63.5,60.0,29.78,SSW,195,9.0,-999.0,88,-99.99,,,0.01,weatherlink.com 1.10,2013-01-30 22:09:00,
2013-01-30 17:24:00,63.2,60.0,29.78,SSE,154,6.0,-999.0,89,-99.99,,,0.01,weatherlink.com 1.10,2013-01-30 22:24:00,
2013-01-30 17:39:00,62.7,60.0,29.77,South,186,7.0,-999.0,90,-99.99,,,0.01,weatherlink.com 1.10,2013-01-30 22:39:00,
2013-01-30 17:54:00,62.6,60.0,29.76,South,178,7.0,-999.0,90,-99.99,,,0.01,weatherlink.com 1.10,2013-01-30 22:54:00,
2013-01-30 18:09:00,62.9,60.0,29.76,South,185,10.0,-999.0,90,-99.99,,,0.01,weatherlink.com 1.10,2013-01-30 23:09:00,
2013-01-30 18:24:00,63.1,60.0,29.75,SSE,168,8.0,-999.0,90,-99.99,,,0.01,weatherlink.com 1.10,2013-01-30 23:24:00,
2013-01-30 18:39:00,62.4,60.0,29.76,South,181,8.0,-999.0,90,-99.99,,,0.01,weatherlink.com 1.10,2013-01-30 23:39:00,
2013-01-30 18:54:00,62.6,60.0,29.75,South,171,4.0,-999.0,90,-99.99,,,0.01,weatherlink.com 1.10,2013-01-30 23:54:00,
2013-01-30 19:09:00,62.9,60.0,29.75,South,185,6.0,-999.0,90,-99.99,,,0.01,weatherlink.com 1.10,2013-01-31 00:09:00,
2013-01-30 19:24:00,63.1,60.0,29.73,SSE,162,8.0,-999.0,90,-99.99,,,0.01,weatherlink.com 1.10,2013-01-31 00:24:00,
2013-01-30 19:39:00,63.1,60.0,29.72,South,189,10.0,-999.0,90,-99.99,,,0.01,weatherlink.com 1.10,2013-01-31 00:39:00,
2013-01-30 19:54:00,63.5,61.0,29.72,South,171,13.0,-999.0,90,-99.99,,,0.01,weatherlink.com 1.10,2013-01-31 00:54:00,
2013-01-30 20:09:00,63.9,60.0,29.70,SE,140,9.0,-999.0,88,-99.99,,,0.01,weatherlink.com 1.10,2013-01-31 01:09:00,
2013-01-30 20:24:00,63.9,60.0,29.70,SSW,193,13.0,-999.0,87,-99.99,,,0.01,weatherlink.com 1.10,2013-01-31 01:24:00,
2013-01-30 20:39:00,64.0,60.0,29.69,SSW,192,9.0,-999.0,87,-99.99,,,0.01,weatherlink.com 1.10,2013-01-31 01:39:00,
2013-01-30 20:54:00,64.0,60.0,29.69,South,184,17.0,-999.0,87,-99.99,,,0.01,weatherlink.com 1.10,2013-01-31 01:54:00,
2013-01-30 21:09:00,64.0,60.0,29.67,SSW,212,13.0,-999.0,87,-99.99,,,0.01,weatherlink.com 1.10,2013-01-31 02:09:00,
2013-01-30 21:24:00,63.5,60.0,29.67,SSW,199,15.0,-999.0,87,-99.99,,,0.01,weatherlink.com 1.10,2013-01-31 02:24:00,
2013-01-30 21:39:00,63.2,60.0,29.66,SSE,155,6.0,-999.0,88,-99.99,,,0.01,weatherlink.com 1.10,2013-01-31 02:39:00,
2013-01-30 21:54:00,63.4,60.0,29.66,SSW,192,15.0,-999.0,88,-99.99,,,0.01,weatherlink.com 1.10,2013-01-31 02:54:00,
2013-01-30 22:09:00,63.2,60.0,29.66,SW,217,10.0,-999.0,88,-99.99,,,0.01,weatherlink.com 1.10,2013-01-31 03:09:00,
2013-01-30 22:24:00,63.4,60.0,29.66,South,171,11.0,-999.0,88,-99.99,,,0.01,weatherlink.com 1.10,2013-01-31 03:24:00,
2013-01-30 22:39:00,63.1,60.0,29.65,SW,216,8.0,-999.0,89,-99.99,,,0.01,weatherlink.com 1.10,2013-01-31 03:39:00,
2013-01-30 22:54:00,62.9,60.0,29.64,SW,224,8.0,-999.0,90,-99.99,,,0.01,weatherlink.com 1.10,2013-01-31 03:54:00,
2013-01-30 23:09:00,63.1,60.0,29.63,South,179,20.0,-999.0,90,-99.99,,,0.01,weatherlink.com 1.10,2013-01-31 04:09:00,
2013-01-30 23:24:00,63.7,61.0,29.62,SSE,168,13.0,-999.0,90,-99.99,,,0.01,weatherlink.com 1.10,2013-01-31 04:24:00,
2013-01-30 23:39:00,63.9,61.0,29.59,SSW,198,10.0,-999.0,89,-99.99,,,0.01,weatherlink.com 1.10,2013-01-31 04:39:00,
2013-01-30 23:54:00,63.9,61.0,29.59,South,184,10.0,-999.0,89,-99.99,,,0.01,weatherlink.com 1.10,2013-01-31 04:54:00,